Preview of NWS' New Version of Forecast
This preview is not operational and should not be used for support decisions.

Regional Weather Roundup (RWR)

Issued by National Weather Service (NWS)

                            
000
ASUS45 KCYS 240710
RWRWY 

WYOMING REGIONAL WEATHER ROUNDUP
NATIONAL WEATHER SERVICE CHEYENNE WY
100 AM MDT SAT AUG 24 2019

NOTE:  "FAIR" INDICATES FEW OR NO CLOUDS BELOW 12,000 FEET
WITH NO SIGNIFICANT WEATHER AND/OR OBSTRUCTIONS TO VISIBILITY.

WYZ001-240800-
YELLOWSTONE NATIONAL PARK
  
CITY           SKY/WX    TMP DP  RH WIND       PRES   REMARKS
LK YELLOWSTONE   N/A     41  36  82 CALM      30.22S                  
W YELLOWSTONE  NOT AVBL                                               

$$
WYZ002>013-054>058-071-098>099-240800-
NORTHERN WYOMING
  
CITY           SKY/WX    TMP DP  RH WIND       PRES   REMARKS
JACKSON        FAIR      44  35  70 N5        30.15R                  
CODY           FAIR      57  46  66 S3        30.03S                  
GREYBULL       FAIR      61  51  70 E6        29.96F                  
WORLAND        FAIR      55  53  93 E6        29.97S                  
SHERIDAN       FAIR      56  54  93 N8        29.95S                  
BUFFALO        FAIR      56  51  84 S10G21      N/A                   
GILLETTE       FAIR      56  54  93 S6        29.97F                  
HULETT         FAIR      55  54  94 SE12      30.00                   
NEWCASTLE      FAIR      55  54  94 CALM      29.99                   

$$
WYZ014>020-022>026-101>103-240800-
CENTRAL WYOMING
  
CITY           SKY/WX    TMP DP  RH WIND       PRES   REMARKS
BIG PINEY      FAIR      47  36  65 CALM      30.18R                  
PINEDALE       FAIR      43  36  75 W3        30.18                   
DUBOIS         FAIR      45  37  76 W13       30.16                   
LANDER         FAIR      55  47  74 NW5       30.08R                  
RIVERTON       FAIR      57  49  74 W9        30.06S                  
CASPER         FAIR      50  47  89 SW5       30.05F                  
DOUGLAS        FAIR      59  50  72 E15       30.04R                  

$$
WYZ021-027>030-104>119-240800-
SOUTHERN WYOMING
  
CITY           SKY/WX    TMP DP  RH WIND       PRES   REMARKS
EVANSTON       FAIR      56  33  42 S7        30.19S                  
KEMMERER       FAIR      52  30  43 CALM      30.20                   
ROCK SPRINGS   FAIR      57  38  48 E3        30.16R                  
DIXON          FAIR      45  25  46 E16       30.16R                  
RAWLINS        MOCLDY    56  42  59 W6        30.12R                  
SARATOGA       FAIR      59  28  31 SE3       30.13F                  
LARAMIE        MOCLDY    57  49  74 SE14      30.15F                  
CHEYENNE       CLOUDY    59  56  89 SE10      30.14F                  
TORRINGTON     FAIR      60  55  83 SE5       30.02F                  
PINE BLUFFS    FAIR      54  52  94 CALM      30.11F                  

$$